timestamp,wind_dir_avg,wind_spd_max_dir,wind_spd_avg,wind_spd_gust,battery_voltage,lat,long
2019-02-05 00:00:00+00:00,226.0,227.0,10.73,12.1,,47.59359,-54.27349
2019-02-05 00:10:00+00:00,224.0,226.0,11.22,12.45,,47.59359,-54.27349
2019-02-05 00:20:00+00:00,227.0,224.0,12.26,14.02,,47.59359,-54.27349
2019-02-05 00:30:00+00:00,228.0,230.0,11.34,13.35,,47.59359,-54.27349
2019-02-05 00:40:00+00:00,226.0,222.0,9.19,10.9,,47.59359,-54.27349
2019-02-05 00:50:00+00:00,225.0,219.0,10.29,12.41,,47.59359,-54.27349
2019-02-05 01:00:00+00:00,225.0,232.0,9.66,11.56,,47.59359,-54.27349
2019-02-05 01:10:00+00:00,222.0,229.0,9.31,11.08,,47.59359,-54.27349
2019-02-05 01:20:00+00:00,236.0,237.0,8.39,11.39,,47.59359,-54.27349
2019-02-05 01:30:00+00:00,240.0,240.0,8.86,10.95,,47.59359,-54.27349
2019-02-05 01:40:00+00:00,247.0,243.0,8.41,10.08,,47.59359,-54.27349
2019-02-05 01:50:00+00:00,239.0,241.0,8.69,10.46,,47.59359,-54.27349
2019-02-05 02:00:00+00:00,242.0,245.0,7.38,8.41,,47.59359,-54.27349
2019-02-05 02:10:00+00:00,243.0,252.0,7.2,8.42,,47.59359,-54.27349
2019-02-05 02:20:00+00:00,239.0,236.0,7.41,8.95,,47.59359,-54.27349
2019-02-05 02:30:00+00:00,238.0,239.0,7.04,8.18,,47.59359,-54.27349
2019-02-05 02:40:00+00:00,236.0,237.0,7.05,8.48,,47.59359,-54.27349
2019-02-05 02:50:00+00:00,244.0,240.0,6.59,7.68,,47.59359,-54.27349
2019-02-05 03:00:00+00:00,242.0,251.0,5.93,7.11,,47.59359,-54.27349
2019-02-05 03:10:00+00:00,235.0,232.0,6.54,7.59,,47.59359,-54.27349
2019-02-05 03:20:00+00:00,237.0,233.0,6.16,6.95,,47.59359,-54.27349
2019-02-05 03:30:00+00:00,243.0,249.0,6.14,6.83,,47.59359,-54.27349
2019-02-05 03:40:00+00:00,247.0,252.0,5.88,7.21,,47.59359,-54.27349
2019-02-05 03:50:00+00:00,263.0,266.0,6.25,6.98,,47.59359,-54.27349
2019-02-05 04:00:00+00:00,265.0,266.0,7.26,7.92,,47.59359,-54.27349
2019-02-05 04:10:00+00:00,263.0,267.0,5.53,8.99,,47.59359,-54.27349
2019-02-05 04:20:00+00:00,269.0,267.0,5.48,9.19,,47.59359,-54.27349
2019-02-05 04:30:00+00:00,270.0,266.0,6.64,10.23,,47.59359,-54.27349
2019-02-05 04:40:00+00:00,276.0,274.0,7.83,9.55,,47.59359,-54.27349
2019-02-05 04:50:00+00:00,280.0,277.0,6.43,9.33,,47.59359,-54.27349
2019-02-05 05:00:00+00:00,278.0,279.0,7.18,7.2,,47.59359,-54.27349
2019-02-05 05:20:00+00:00,282.0,283.0,6.01,6.32,,47.59359,-54.27349
2019-02-05 05:30:00+00:00,272.0,271.0,5.13,5.73,,47.59359,-54.27349
2019-02-05 05:40:00+00:00,270.0,268.0,4.77,5.45,,47.59359,-54.27349
2019-02-05 05:50:00+00:00,273.0,277.0,5.55,6.26,,47.59359,-54.27349
2019-02-05 06:00:00+00:00,282.0,280.0,5.52,7.5,,47.59359,-54.27349
2019-02-05 06:10:00+00:00,282.0,290.0,6.15,6.82,,47.59359,-54.27349
2019-02-05 06:20:00+00:00,317.0,327.0,6.86,10.18,,47.59359,-54.27349
2019-02-05 06:30:00+00:00,282.0,297.0,6.05,7.51,,47.59359,-54.27349
2019-02-05 06:40:00+00:00,287.0,291.0,6.53,7.32,,47.59359,-54.27349
2019-02-05 06:50:00+00:00,298.0,296.0,5.31,5.79,,47.59359,-54.27349
2019-02-05 07:00:00+00:00,321.0,319.0,5.74,7.14,,47.59359,-54.27349
2019-02-05 07:10:00+00:00,322.0,330.0,6.65,7.53,,47.59359,-54.27349
2019-02-05 07:20:00+00:00,314.0,318.0,6.53,7.52,,47.59359,-54.27349
2019-02-05 07:30:00+00:00,325.0,330.0,8.62,10.17,,47.59359,-54.27349
2019-02-05 07:40:00+00:00,331.0,331.0,7.58,8.78,,47.59359,-54.27349
2019-02-05 07:50:00+00:00,338.0,336.0,6.86,7.77,,47.59359,-54.27349
2019-02-05 08:00:00+00:00,331.0,327.0,6.64,7.79,,47.59359,-54.27349
2019-02-05 08:10:00+00:00,322.0,320.0,6.46,7.34,,47.59359,-54.27349
2019-02-05 08:20:00+00:00,334.0,336.0,5.7,6.45,,47.59359,-54.27349
2019-02-05 08:30:00+00:00,336.0,336.0,5.53,6.63,,47.59359,-54.27349
2019-02-05 08:40:00+00:00,358.0,0.0,7.23,8.1,,47.59359,-54.27349
2019-02-05 08:50:00+00:00,347.0,346.0,7.15,7.85,,47.59359,-54.27349
2019-02-05 09:00:00+00:00,346.0,346.0,7.02,7.79,,47.59359,-54.27349
2019-02-05 09:10:00+00:00,348.0,351.0,6.91,8.18,,47.59359,-54.27349
2019-02-05 09:20:00+00:00,348.0,346.0,8.39,9.52,,47.59359,-54.27349
2019-02-05 09:30:00+00:00,348.0,350.0,8.84,9.74,,47.59359,-54.27349
2019-02-05 09:40:00+00:00,346.0,348.0,6.99,7.82,,47.59359,-54.27349
2019-02-05 09:50:00+00:00,349.0,346.0,5.99,6.83,,47.59359,-54.27349
2019-02-05 10:00:00+00:00,353.0,359.0,6.56,7.27,,47.59359,-54.27349
2019-02-05 10:10:00+00:00,356.0,359.0,6.46,7.05,,47.59359,-54.27349
2019-02-05 10:20:00+00:00,352.0,356.0,6.48,7.24,,47.59359,-54.27349
2019-02-05 10:30:00+00:00,2.0,0.0,7.05,7.56,,47.59359,-54.27349
2019-02-05 10:40:00+00:00,2.0,3.0,7.07,7.82,,47.59359,-54.27349
2019-02-05 10:50:00+00:00,0.0,356.0,6.68,7.66,,47.59359,-54.27349
2019-02-05 11:00:00+00:00,3.0,6.0,5.33,5.71,,47.59359,-54.27349
2019-02-05 11:10:00+00:00,0.0,357.0,5.94,6.63,,47.59359,-54.27349
2019-02-05 11:20:00+00:00,5.0,13.0,5.19,5.69,,47.59359,-54.27349
2019-02-05 11:30:00+00:00,3.0,357.0,4.27,4.94,,47.59359,-54.27349
2019-02-05 11:40:00+00:00,6.0,11.0,6.58,7.03,,47.59359,-54.27349
2019-02-05 11:50:00+00:00,6.0,9.0,5.13,5.99,,47.59359,-54.27349
2019-02-05 12:00:00+00:00,5.0,13.0,4.63,5.32,,47.59359,-54.27349
2019-02-05 12:10:00+00:00,0.0,358.0,4.4,4.85,,47.59359,-54.27349
2019-02-05 12:20:00+00:00,9.0,7.0,3.25,3.89,,47.59359,-54.27349
2019-02-05 12:30:00+00:00,1.0,1.0,3.66,4.65,,47.59359,-54.27349
2019-02-05 12:40:00+00:00,338.0,332.0,2.75,3.64,,47.59359,-54.27349
2019-02-05 12:50:00+00:00,319.0,319.0,2.75,3.46,,47.59359,-54.27349
2019-02-05 13:00:00+00:00,322.0,315.0,2.63,3.36,,47.59359,-54.27349
2019-02-05 13:10:00+00:00,316.0,309.0,2.01,2.58,,47.59359,-54.27349
2019-02-05 13:20:00+00:00,344.0,349.0,3.22,3.53,,47.59359,-54.27349
2019-02-05 13:30:00+00:00,334.0,325.0,2.93,3.25,,47.59359,-54.27349
2019-02-05 13:40:00+00:00,325.0,316.0,1.85,2.07,,47.59359,-54.27349
2019-02-05 13:50:00+00:00,3.0,9.0,1.07,1.37,,47.59359,-54.27349
2019-02-05 14:00:00+00:00,339.0,343.0,1.98,2.21,,47.59359,-54.27349
2019-02-05 14:10:00+00:00,286.0,289.0,1.26,1.55,,47.59359,-54.27349
2019-02-05 14:20:00+00:00,301.0,302.0,1.07,1.47,,47.59359,-54.27349
2019-02-05 14:30:00+00:00,284.0,279.0,1.02,1.31,,47.59359,-54.27349
2019-02-05 14:40:00+00:00,323.0,320.0,1.2,1.42,,47.59359,-54.27349
2019-02-05 14:50:00+00:00,323.0,317.0,1.33,1.71,,47.59359,-54.27349
2019-02-05 15:00:00+00:00,24.0,27.0,0.55,1.05,,47.59359,-54.27349
2019-02-05 15:10:00+00:00,51.0,50.0,0.7,0.86,,47.59359,-54.27349
2019-02-05 15:20:00+00:00,276.0,282.0,0.34,0.51,,47.59359,-54.27349
2019-02-05 15:30:00+00:00,355.0,343.0,0.47,0.66,,47.59359,-54.27349
2019-02-05 15:40:00+00:00,32.0,30.0,1.05,1.21,,47.59359,-54.27349
2019-02-05 15:50:00+00:00,52.0,48.0,0.78,1.03,,47.59359,-54.27349
2019-02-05 16:00:00+00:00,285.0,215.0,0.25,0.67,,47.59359,-54.27349
2019-02-05 16:10:00+00:00,231.0,290.0,0.17,0.55,,47.59359,-54.27349
2019-02-05 16:20:00+00:00,246.0,238.0,0.68,1.02,,47.59359,-54.27349
2019-02-05 16:30:00+00:00,215.0,222.0,1.04,1.23,,47.59359,-54.27349
2019-02-05 16:40:00+00:00,206.0,198.0,1.09,1.37,,47.59359,-54.27349
2019-02-05 16:50:00+00:00,264.0,256.0,1.66,1.88,,47.59359,-54.27349
2019-02-05 17:00:00+00:00,243.0,246.0,1.92,2.31,,47.59359,-54.27349
2019-02-05 17:10:00+00:00,239.0,235.0,2.1,2.49,,47.59359,-54.27349
2019-02-05 17:20:00+00:00,214.0,218.0,1.73,1.98,,47.59359,-54.27349
2019-02-05 17:30:00+00:00,227.0,230.0,3.25,3.63,,47.59359,-54.27349
2019-02-05 17:40:00+00:00,204.0,201.0,4.26,4.78,,47.59359,-54.27349
2019-02-05 17:50:00+00:00,198.0,195.0,4.97,5.49,,47.59359,-54.27349
2019-02-05 18:00:00+00:00,215.0,218.0,4.69,5.23,,47.59359,-54.27349
2019-02-05 18:10:00+00:00,217.0,219.0,5.91,6.42,,47.59359,-54.27349
2019-02-05 18:20:00+00:00,211.0,212.0,6.99,7.52,,47.59359,-54.27349
2019-02-05 18:30:00+00:00,227.0,232.0,6.25,7.08,,47.59359,-54.27349
2019-02-05 18:40:00+00:00,230.0,227.0,6.24,6.8,,47.59359,-54.27349
2019-02-05 18:50:00+00:00,217.0,222.0,6.65,7.58,,47.59359,-54.27349
2019-02-05 19:00:00+00:00,222.0,225.0,6.92,7.48,,47.59359,-54.27349
2019-02-05 19:10:00+00:00,220.0,226.0,6.24,7.49,,47.59359,-54.27349
2019-02-05 19:20:00+00:00,228.0,227.0,6.87,7.52,,47.59359,-54.27349
2019-02-05 19:30:00+00:00,224.0,226.0,6.8,7.89,,47.59359,-54.27349
2019-02-05 19:40:00+00:00,221.0,219.0,7.79,8.41,,47.59359,-54.27349
2019-02-05 19:50:00+00:00,218.0,214.0,7.97,9.47,,47.59359,-54.27349
2019-02-05 20:00:00+00:00,211.0,208.0,8.43,9.51,,47.59359,-54.27349
2019-02-05 20:10:00+00:00,204.0,214.0,7.28,8.7,,47.59359,-54.27349
2019-02-05 20:20:00+00:00,210.0,212.0,6.74,7.38,,47.59359,-54.27349
2019-02-05 20:30:00+00:00,207.0,208.0,7.7,8.51,,47.59359,-54.27349
2019-02-05 20:40:00+00:00,209.0,213.0,7.29,7.92,,47.59359,-54.27349
2019-02-05 20:50:00+00:00,211.0,212.0,5.98,6.67,,47.59359,-54.27349
2019-02-05 21:00:00+00:00,209.0,212.0,6.66,7.56,,47.59359,-54.27349
2019-02-05 21:10:00+00:00,209.0,210.0,7.37,8.03,,47.59359,-54.27349
2019-02-05 21:20:00+00:00,207.0,209.0,8.23,8.88,,47.59359,-54.27349
2019-02-05 21:30:00+00:00,195.0,200.0,8.23,9.31,,47.59359,-54.27349
2019-02-05 21:40:00+00:00,204.0,207.0,7.93,8.89,,47.59359,-54.27349
2019-02-05 21:50:00+00:00,215.0,216.0,8.73,9.91,,47.59359,-54.27349
2019-02-05 22:00:00+00:00,220.0,216.0,8.25,9.31,,47.59359,-54.27349
2019-02-05 22:10:00+00:00,223.0,226.0,7.78,8.95,,47.59359,-54.27349
2019-02-05 22:20:00+00:00,232.0,235.0,10.36,12.23,,47.59359,-54.27349
2019-02-05 22:30:00+00:00,225.0,224.0,8.81,9.58,,47.59359,-54.27349
2019-02-05 22:40:00+00:00,214.0,210.0,7.44,8.2,,47.59359,-54.27349
2019-02-05 22:50:00+00:00,213.0,213.0,8.58,9.61,,47.59359,-54.27349
2019-02-05 23:00:00+00:00,216.0,221.0,8.02,9.61,,47.59359,-54.27349
2019-02-05 23:10:00+00:00,220.0,218.0,8.29,9.62,,47.59359,-54.27349
2019-02-05 23:20:00+00:00,227.0,224.0,7.13,8.43,,47.59359,-54.27349
2019-02-05 23:30:00+00:00,225.0,230.0,8.63,9.92,,47.59359,-54.27349
2019-02-05 23:40:00+00:00,220.0,219.0,9.59,10.47,,47.59359,-54.27349
2019-02-05 23:50:00+00:00,224.0,232.0,8.52,10.0,,47.59359,-54.27349
